Location: Borojevi?i
(45.0486°N, 16.2297°E)
Time: 16:32:56
(UTC+00:00)

Cosmos 1818 - Pass Details

Date: 08 August 2020
Orbit: 776 x 797 km, 65.0° (Epoch: 18 September)

Event Time Altitude Azimuth Distance (km) Brightness Sun altitude
Rises 20:01:37 0° 321° (NW) 3,309 8.6 -16.8°
Reaches altitude 10° 20:04:05 10° 317° (NW) 2,375 7.4 -17.1°
Maximum altitude 20:09:25 55° 241° (WSW) 950 4.0 -17.8°
Enters shadow 20:12:24 25° 174° (S) 1,550 4.6 -18.2°
